Other Public Products
Issued by NWS Grand Forks, ND

Home | Current Version | Previous Version | Graphics & Text | Print | Product List | Glossary On
Versions: 1 2 3 4 5 6 7 8 9 10 11 12 13 14 15 16 17 18 19 20 21 22 23 24 25 26 27 28 29 30 31 32 33 34 35 36 37 38 39 40 41 42 43 44 45 46 47 48 49 50
000
FPUS83 KFGF 281031
OPUFGF
PRAIRIE TO PINES WEATHER ROUNDUP
NATIONAL WEATHER SERVICE EASTERN NORTH DAKOTA/GRAND FORKS ND
500 AM CDT MON JUL 28 2014

 **SATELLITE DATA USED TO AUGMENT SKY COVER AT AUTOMATED STATIONS**
 *****  WEATHER ACROSS EASTERN NORTH DAKOTA  *****

CITY           SKY/WX    TMP DP  RH WIND       PRES   REMARKS
GRAND FORKS    CLOUDY    60  55  83 NW5         N/A
GRAND FORKS AF CLOUDY    60  57  90 NW6       30.26R
GRAND CITY NWS   N/A     59 N/A N/A NW3         N/A
BUXTON           N/A     60  58  95 NW6         N/A
DEVILS LAKE    CLEAR     54  48  82 NW7       30.28S
FARGO          CLOUDY    60  55  83 NW7       30.24R
WAHPETON ARPT  CLOUDY    59  54  82 N8        30.25S
$$

 *****  WEATHER ACROSS CENTRAL AND WESTERN NORTH DAKOTA  *****

CITY           SKY/WX    TMP DP  RH WIND       PRES   REMARKS
JAMESTOWN      CLOUDY    57  53  86 NW6       30.29R
BISMARCK       CLEAR     47  46  97 CALM      30.34R FOG
MINOT          MOCLDY    53  49  86 CALM      30.31R
MINOT AFB      CLOUDY    52  51  99 W1        30.31R
GARRISON         N/A     48  46  93 CALM      30.31F
WILLISTON      CLEAR     51  49  92 CALM      30.31F
DICKINSON      CLEAR     49  46  90 S7        30.33R
HETTINGER      CLEAR     43  41  93 CALM      30.36S
$$

 *****  OTHER OBSERVATIONS NORTHEAST NORTH DAKOTA  *****

CITY           SKY/WX    TMP DP  RH WIND       PRES   REMARKS
WALHALLA         N/A     54  54 100 CALM        N/A
LANGDON        FAIR      46  46 100 NW3       30.29S
CAVALIER       CLOUDY    57  54  88 NW6       30.26R
GRAFTON        CLOUDY    57  54  88 NW7       30.25S
CANDO          PTSUNNY   50  50 100 NW3       30.30S
FORT TOTTEN    NOT AVBL
ROLLA          FAIR      48  48 100 NW7       30.31S
RUGBY          FOG       46  46 100 CALM      30.30S VSB 1/2
 ***** THE ABOVE OBSERVATIONS ARE NON NWS ARE NOT QUALITY
        CONTROLLED AND MAY MIS-REPORT RAIN FOR SNOW...
$$

 *****  OTHER OBSERVATIONS SOUTHEAST NORTH DAKOTA *****

CITY           SKY/WX    TMP DP  RH WIND       PRES   REMARKS
COOPERSTOWN    NOT AVBL
VALLEY CITY    CLOUDY    57  57 100 NW8       30.28S
OAKES          NOT AVBL
GWINNER        CLOUDY    61  57  88 NW7       30.28S
SHEYENNE NWR     N/A     60  56  85 NW3       29.95S
BUFFALO        NOT AVBL
WYNDMERE       NOT AVBL
 ***** THE ABOVE OBSERVATIONS ARE NON NWS ARE NOT QUALITY
       CONTROLLED AND MAY MIS-REPORT RAIN FOR SNOW...
$$

  *****  WEATHER ACROSS NORTHERN MINNESOTA  *****

CITY           SKY/WX    TMP DP  RH WIND       PRES   REMARKS
FLAG ISLAND    CLEAR     57  55  94 NW8       30.19S
WARROAD        MOCLDY    55  52  88 NW7       30.22S
ROSEAU         CLEAR     55  50  82 W3        30.22S
HALLOCK        CLOUDY    57  54  88 NW5       30.24S
THF RVR FALLS  CLOUDY    59  55  88 NW7       30.24R
HALSTAD          N/A     59  55  88 N5          N/A
FOSSTON        CLOUDY    57  54  88 NW5       30.24S
BAUDETTE       MOCLDY    56  54  93 CALM      30.21R
WASKISH        PTCLDY    55  54  94 CALM      30.20S
CROOKSTON      CLOUDY    59  55  88 NW5       30.25S
$$
  *****  WEATHER ACROSS CENTRAL AND WEST MINNESOTA  *****

CITY           SKY/WX    TMP DP  RH WIND       PRES   REMARKS
BEMIDJI        CLOUDY    58  55  92 NW6       30.22R
PARK RAPIDS    CLOUDY    59  55  87 NW6       30.21R
WADENA         CLOUDY    59  55  88 NW6       30.22R
DETROIT LAKES  CLOUDY    59  57  94 NW5       30.25R
MOORHEAD       CLOUDY    61  59  94 N5        30.25S
FERGUS FALLS   CLOUDY    59  57  94 N8        30.24S
ELBOW LAKE     CLOUDY    60  58  93 NW6       30.23R
MORRIS MN      CLOUDY    61  57  88 NW6       30.22S
STAPLES        CLOUDY    59  55  88 NW3       30.21R
WHEATON        CLOUDY    57  55  94 NW5       30.26S
$$
  *****  WEATHER ELSEWHERE ACROSS MINNESOTA  *****

CITY           SKY/WX    TMP DP  RH WIND       PRES   REMARKS
DULUTH         CLOUDY    57  53  86 NW7       30.15S
INTRNTL FALLS  CLOUDY    50  49  96 CALM      30.18R
ELY            CLOUDY    54  52  94 W3        30.16R
CLOQUET        CLOUDY    55  54  94 NW5       30.17R
BRAINERD       CLOUDY    62  56  80 NW7       30.19R
HIBBING        CLOUDY    55  52  89 NW3       30.17R
ALEXANDRIA     CLOUDY    62  58  86 NW9       30.23R
SAINT CLOUD    CLOUDY    64  58  80 NW5       30.17R
MINNEAPOLIS    CLOUDY    63  58  83 NW6       30.16R
$$

  *****  WEATHER ACROSS SOUTH DAKOTA  *****

CITY           SKY/WX    TMP DP  RH WIND       PRES   REMARKS
SIOUX FALLS    CLOUDY    58  55  90 NW8       30.24S
BROOKINGS      NOT AVBL
WATERTOWN      CLOUDY    59  56  89 N7        30.26R
HURON          CLEAR     50  48  93 NW5       30.28R
SISSETON         N/A     60  58  92 N8        30.24S
ABERDEEN       CLOUDY    55  53  93 N8        30.28S
MITCHELL       CLEAR     54  53  97 NW7       30.29R
PIERRE         CLEAR     52  51  97 NW5       30.31S
MOBRIDGE       CLEAR     51  51 100 N6        30.31R
RAPID CITY     PTCLDY    53  50  89 CALM      30.36F
$$

  *****  SOME WEATHER IN NEARBY STATES *****

CITY           SKY/WX    TMP DP  RH WIND       PRES   REMARKS
GLASGOW MT     CLEAR     57  51  80 E12       30.26S
GREAT FALLS MT PTCLDY    60  41  49 S3        30.21S
CHEYENNE WY    CLEAR     56  50  80 CALM      30.40F
SCOTTSBLUFF NE CLEAR     61  50  67 E10       30.32S
OMAHA NE       CLEAR     58  54  86 N6        30.22R
DES MOINES IA  PTCLDY    63  58  83 N7        30.14R
DAVENPORT IA   CLEAR     59  53  80 N9        30.07R
CHICAGO IL     PTCLDY    61  48  62 N10       29.97R
EAU CLAIRE WI  CLOUDY    57  54  89 CALM      30.14R
LA CROSSE WI   CLEAR     55  52  89 N6        30.13R
$$

  *****  SOME NATIONAL WEATHER *****

CITY           SKY/WX    TMP DP  RH WIND       PRES   REMARKS
LA GUARDIA NY  CLOUDY    71  66  84 S7        29.54S
RALEIGH NC     MOCLDY    76  60  57 W8        29.75S
ATLANTA GA     LGT RAIN  77  73  87 SW7       29.93F
NEW ORLEANS LA PTCLDY    79  76  90 W7        30.04R
OKLAHOMA CITY  MOCLDY    76  65  68 NE7       30.16R
ALBUQUERQUE NM PTCLDY    70  55  59 N10       30.35R
SALT LAKE CITY MOCLDY    79  47  32 NW5       30.13R
LOS ANGELES CA CLOUDY    68  64  88 W5        30.03S
BOISE ID       PTCLDY    79  36  21 S5        30.02R
SEATTLE WA     CLEAR     65  29  25 NE9       30.11S
$$

*** WEATHER ACROSS MANITOBA...SASKATCHEWAN AND ONTARIO ***
                ***ONTARIO***

CITY           SKY/WX    TMP DP  RH WIND       PRES   REMARKS
GERALDTON      MOCLDY    50  48  93 NW2       30.03R
THUNDER BAY    PTCLDY    52  50  93 SW8       30.08R
SIOUX LOOKOUT  PTCLDY    54  52  94 NW5       30.14S
TORONTO        LGT RAIN  63  59  88 N14       29.64R
BIG TROUT LK   MOCLDY    57  54  88 NW7       30.04S
PICKLE LAKE    NOT AVBL
DRYDEN         CLEAR     50  50 100 W8        30.16S
KENORA         PTCLDY    57  55  94 NW6       30.21R
$$
                *** MANITOBA***

CITY           SKY/WX    TMP DP  RH WIND       PRES   REMARKS
BRANDON        CLEAR     48  46  93 NW8       30.30S
DAUPHIN        CLEAR     52  48  87 W8        30.29R
ISLAND LAKE    MOCLDY    63  55  77 W5        30.15S
PILOT MOUND      N/A     46  46 100 NW3         N/A
THE PAS        PTCLDY    52  52 100 CALM      30.26S
THOMPSON       PTCLDY    48  46  93 NW5       30.19S
WINNIPEG       PTCLDY    46  46 100 W8        30.25S
LYNN LAKE      CLEAR     55  50  82 W7        30.23S
CHURCHILL      PTCLDY    61  54  77 NW9       30.03S
GILLAM         PTCLDY    63  54  72 NW8       30.10F
$$
                ***SASKATCHEWAN***

CITY           SKY/WX    TMP DP  RH WIND       PRES   REMARKS
ESTEVAN        PTCLDY    54  52  94 CALM      30.31F
KINDERSLEY     CLEAR     54  52  94 SE6       30.26S
LLOYDMINSTER   CLEAR     54  52  94 SW7       30.25R
PRINCE ALBERT  MOCLDY    48  48 100 NE2       30.28S FOG
REGINA         PTCLDY    55  54  94 SE8       30.30S


USA.gov is the U.S. government's official web portal to all federal, state and local government web resources and services.